Location: Vancouver
(49.2500°N, 123.1330°W)
Time: 07:41:37
(UTC-07:00)

ERS-2 - Visible Passes

Search period start: 21 April 2015 00:00
Search period end: 01 May 2015 00:00
Orbit: 517 x 525 km, 98.5° (Epoch: 21 April)

Date Brightness Start Highest point End Pass type
(mag) Time Alt. Az. Time Alt. Az. Time Alt. Az.
21 Apr 4.7 00:42:16 10° NNW 00:44:38 16° WNW 00:44:51 16° WNW visible
21 Apr 3.4 22:54:05 10° NNE 22:56:28 30° ENE 22:56:28 30° ENE visible
22 Apr 4.4 00:28:38 10° NNW 00:31:32 21° WNW 00:31:35 21° WNW visible
22 Apr 3.7 22:41:04 10° NE 22:43:11 23° ENE 22:43:11 23° ENE visible
23 Apr 4.0 00:15:08 10° N 00:18:18 27° WNW 00:18:18 27° WNW visible
23 Apr 4.1 22:28:09 10° NE 22:29:52 18° ENE 22:29:52 18° ENE visible
24 Apr 3.5 00:01:41 10° N 00:04:59 37° WNW 00:04:59 37° WNW visible
24 Apr 4.4 22:15:26 10° NE 22:16:33 13° ENE 22:16:33 13° ENE visible
24 Apr 3.0 23:48:17 10° N 23:51:39 50° NW 23:51:39 50° NW visible
25 Apr 2.5 23:34:56 10° NNE 23:38:18 65° NNW 23:38:18 65° NNW visible
26 Apr 2.4 23:21:38 10° NNE 23:24:55 63° NE 23:24:55 63° NE visible
27 Apr 4.9 00:57:18 10° NNW 00:59:00 12° WNW 01:00:02 11° WNW visible
27 Apr 2.7 23:08:21 10° NNE 23:11:32 47° ENE 23:11:32 47° ENE visible
28 Apr 4.6 00:43:20 10° NNW 00:45:49 17° WNW 00:46:38 15° WNW visible
28 Apr 3.1 22:55:09 10° NNE 22:58:06 34° ENE 22:58:06 34° ENE visible
29 Apr 4.2 00:29:35 10° NNW 00:32:34 22° WNW 00:33:12 21° WNW visible
29 Apr 3.5 22:42:00 10° NE 22:44:40 25° E 22:44:40 25° E visible
30 Apr 3.8 00:15:57 10° N 00:19:18 29° WNW 00:19:46 28° W visible
30 Apr 3.9 22:28:59 10° NE 22:31:13 18° E 22:31:13 18° E visible
